Time,TemperatureF,DewpointF,PressureIn,WindDirection,WindDirectionDegrees,WindSpeedMPH,WindSpeedGustMPH,Humidity,HourlyPrecipIn,Conditions,Clouds,dailyrainin,SolarRadiationWatts/m^2,SoftwareType,DateUTC
2013-02-26 00:06:00,31.7,29.0,30.03,NW,307,0.0,0.0,88,0.00,,,0.00,0,weatherlink.com 1.10,2013-02-26 07:06:00,
2013-02-26 00:21:00,31.6,29.0,30.03,NW,307,0.0,2.0,88,0.00,,,0.00,0,weatherlink.com 1.10,2013-02-26 07:21:00,
2013-02-26 00:36:00,31.6,29.0,30.03,NW,307,0.0,2.0,88,0.00,,,0.00,0,weatherlink.com 1.10,2013-02-26 07:36:00,
2013-02-26 00:51:00,31.8,29.0,30.03,NW,307,0.0,1.0,88,0.00,,,0.00,0,weatherlink.com 1.10,2013-02-26 07:51:00,
2013-02-26 01:06:00,31.7,29.0,30.03,NW,307,0.0,0.0,88,0.00,,,0.00,0,weatherlink.com 1.10,2013-02-26 08:06:00,
2013-02-26 01:21:00,31.2,28.0,30.04,NW,307,0.0,0.0,88,0.00,,,0.00,0,weatherlink.com 1.10,2013-02-26 08:21:00,
2013-02-26 01:36:00,30.6,28.0,30.03,NW,307,0.0,0.0,89,0.00,,,0.00,0,weatherlink.com 1.10,2013-02-26 08:36:00,
2013-02-26 01:52:00,31.1,28.0,30.04,NW,307,0.0,2.0,89,0.00,,,0.00,0,weatherlink.com 1.10,2013-02-26 08:52:00,
2013-02-26 02:06:00,31.2,28.0,30.04,NW,307,1.0,2.0,89,0.00,,,0.00,0,weatherlink.com 1.10,2013-02-26 09:06:00,
2013-02-26 02:22:00,30.8,28.0,30.04,NW,307,0.0,1.0,88,0.00,,,0.00,0,weatherlink.com 1.10,2013-02-26 09:22:00,
2013-02-26 02:36:00,30.3,28.0,30.04,NW,307,0.0,1.0,89,0.00,,,0.00,0,weatherlink.com 1.10,2013-02-26 09:36:00,
2013-02-26 02:52:00,29.4,27.0,30.04,NW,307,0.0,2.0,90,0.00,,,0.00,0,weatherlink.com 1.10,2013-02-26 09:52:00,
2013-02-26 03:06:00,29.0,27.0,30.04,NW,313,1.0,2.0,91,0.00,,,0.00,0,weatherlink.com 1.10,2013-02-26 10:06:00,
2013-02-26 03:22:00,28.6,26.0,30.04,NW,304,0.0,3.0,88,0.00,,,0.00,0,weatherlink.com 1.10,2013-02-26 10:22:00,
2013-02-26 03:36:00,27.3,25.0,30.04,NW,304,0.0,2.0,89,0.00,,,0.00,0,weatherlink.com 1.10,2013-02-26 10:36:00,
2013-02-26 03:52:00,27.1,25.0,30.05,NW,304,0.0,0.0,90,0.00,,,0.00,0,weatherlink.com 1.10,2013-02-26 10:52:00,
2013-02-26 04:07:00,27.6,25.0,30.05,NW,310,2.0,3.0,90,0.00,,,0.00,0,weatherlink.com 1.10,2013-02-26 11:07:00,
2013-02-26 04:22:00,28.1,25.0,30.06,NW,309,1.0,2.0,88,0.00,,,0.00,0,weatherlink.com 1.10,2013-02-26 11:22:00,
2013-02-26 04:37:00,30.4,27.0,30.07,West,271,3.0,6.0,86,0.00,,,0.00,0,weatherlink.com 1.10,2013-02-26 11:37:00,
2013-02-26 04:52:00,31.9,27.0,30.07,West,274,5.0,7.0,83,0.00,,,0.00,0,weatherlink.com 1.10,2013-02-26 11:52:00,
2013-02-26 05:07:00,32.2,27.0,30.08,WNW,290,6.0,9.0,82,0.00,,,0.00,0,weatherlink.com 1.10,2013-02-26 12:07:00,
2013-02-26 05:23:00,32.5,27.0,30.09,West,279,6.0,9.0,81,0.00,,,0.00,0,weatherlink.com 1.10,2013-02-26 12:23:00,
2013-02-26 05:37:00,31.8,27.0,30.11,West,278,6.0,8.0,83,0.00,,,0.00,0,weatherlink.com 1.10,2013-02-26 12:37:00,
2013-02-26 05:52:00,31.8,27.0,30.12,NW,306,4.0,9.0,83,0.00,,,0.00,0,weatherlink.com 1.10,2013-02-26 12:52:00,
2013-02-26 06:07:00,31.1,27.0,30.12,NW,322,6.0,7.0,84,0.00,,,0.00,0,weatherlink.com 1.10,2013-02-26 13:07:00,
2013-02-26 06:22:00,30.4,27.0,30.13,WNW,294,3.0,7.0,86,0.00,,,0.00,0,weatherlink.com 1.10,2013-02-26 13:22:00,
2013-02-26 06:38:00,29.8,26.0,30.14,WNW,288,5.0,9.0,87,0.00,,,0.00,0,weatherlink.com 1.10,2013-02-26 13:38:00,
2013-02-26 06:52:00,-999.0,-99.9,30.14,North,-999,-999.0,-999.0,-999,0.00,,,0.00,,weatherlink.com 1.10,2013-02-26 13:52:00,
2013-02-26 07:08:00,-999.0,-99.9,30.15,North,-999,-999.0,-999.0,-999,0.00,,,0.00,,weatherlink.com 1.10,2013-02-26 14:08:00,
2013-02-26 07:23:00,28.3,25.0,30.16,NW,314,12.0,17.0,88,0.00,,,0.00,39,weatherlink.com 1.10,2013-02-26 14:23:00,
2013-02-26 07:38:00,28.7,26.0,30.17,NW,313,7.0,18.0,90,0.00,,,0.00,47,weatherlink.com 1.10,2013-02-26 14:38:00,
2013-02-26 07:53:00,29.1,27.0,30.18,NW,325,7.0,10.0,90,0.00,,,0.00,63,weatherlink.com 1.10,2013-02-26 14:53:00,
2013-02-26 08:08:00,29.5,27.0,30.18,NW,309,9.0,14.0,89,0.00,,,0.00,95,weatherlink.com 1.10,2013-02-26 15:08:00,
2013-02-26 08:23:00,30.0,27.0,30.18,NW,321,8.0,13.0,89,0.00,,,0.00,91,weatherlink.com 1.10,2013-02-26 15:23:00,
2013-02-26 08:38:00,30.7,28.0,30.20,NNW,332,6.0,12.0,89,0.00,,,0.00,86,weatherlink.com 1.10,2013-02-26 15:38:00,
2013-02-26 08:53:00,31.1,28.0,30.20,NW,309,5.0,12.0,88,0.00,,,0.00,76,weatherlink.com 1.10,2013-02-26 15:53:00,
2013-02-26 09:08:00,31.4,28.0,30.20,WNW,286,6.0,11.0,88,0.00,,,0.00,81,weatherlink.com 1.10,2013-02-26 16:08:00,
2013-02-26 09:24:00,31.7,28.0,30.20,NW,315,6.0,15.0,87,0.00,,,0.00,83,weatherlink.com 1.10,2013-02-26 16:24:00,
2013-02-26 09:38:00,31.9,28.0,30.21,NNW,330,5.0,14.0,86,0.00,,,0.00,109,weatherlink.com 1.10,2013-02-26 16:38:00,
2013-02-26 09:54:00,31.8,28.0,30.22,WNW,290,5.0,14.0,85,0.00,,,0.00,83,weatherlink.com 1.10,2013-02-26 16:54:00,
2013-02-26 10:08:00,31.8,28.0,30.22,WSW,258,12.0,14.0,86,0.00,,,0.00,95,weatherlink.com 1.10,2013-02-26 17:08:00,
2013-02-26 10:24:00,31.9,28.0,30.22,NW,317,7.0,16.0,85,0.00,,,0.00,120,weatherlink.com 1.10,2013-02-26 17:24:00,
2013-02-26 10:38:00,32.2,28.0,30.22,NW,308,9.0,15.0,85,0.00,,,0.00,155,weatherlink.com 1.10,2013-02-26 17:38:00,
2013-02-26 10:54:00,32.3,28.0,30.22,WNW,285,11.0,16.0,83,0.00,,,0.00,148,weatherlink.com 1.10,2013-02-26 17:54:00,
2013-02-26 11:09:00,32.5,28.0,30.23,WNW,285,11.0,16.0,83,0.00,,,0.00,176,weatherlink.com 1.10,2013-02-26 18:09:00,
2013-02-26 11:24:00,32.8,27.0,30.23,WNW,303,18.0,21.0,80,0.00,,,0.00,271,weatherlink.com 1.10,2013-02-26 18:24:00,
2013-02-26 11:39:00,33.0,27.0,30.23,NW,315,10.0,18.0,80,0.00,,,0.00,225,weatherlink.com 1.10,2013-02-26 18:39:00,
2013-02-26 11:54:00,33.0,27.0,30.23,NNW,327,10.0,18.0,79,0.00,,,0.00,234,weatherlink.com 1.10,2013-02-26 18:54:00,
2013-02-26 12:09:00,33.0,27.0,30.23,NNW,327,15.0,19.0,79,0.00,,,0.00,206,weatherlink.com 1.10,2013-02-26 19:09:00,
2013-02-26 12:24:00,33.1,27.0,30.23,NNW,329,13.0,19.0,79,0.00,,,0.00,209,weatherlink.com 1.10,2013-02-26 19:24:00,
2013-02-26 12:39:00,33.3,27.0,30.23,WNW,302,11.0,18.0,79,0.00,,,0.00,214,weatherlink.com 1.10,2013-02-26 19:39:00,
2013-02-26 12:54:00,33.3,28.0,30.24,NW,326,9.0,15.0,80,0.00,,,0.00,207,weatherlink.com 1.10,2013-02-26 19:54:00,
2013-02-26 13:08:00,33.3,28.0,30.24,WNW,300,14.0,16.0,80,0.00,,,0.00,134,weatherlink.com 1.10,2013-02-26 20:08:00,
2013-02-26 13:24:00,33.4,28.0,30.24,WNW,284,7.0,16.0,80,0.00,,,0.00,134,weatherlink.com 1.10,2013-02-26 20:24:00,
2013-02-26 13:55:00,33.7,28.0,30.25,WNW,298,8.0,18.0,79,0.00,,,0.00,209,weatherlink.com 1.10,2013-02-26 20:55:00,
2013-02-26 14:09:00,34.4,29.0,30.26,WNW,292,7.0,16.0,79,0.00,,,0.00,744,weatherlink.com 1.10,2013-02-26 21:09:00,
2013-02-26 14:25:00,34.2,28.0,30.27,NW,304,7.0,17.0,78,0.00,,,0.00,234,weatherlink.com 1.10,2013-02-26 21:25:00,
2013-02-26 14:39:00,34.0,28.0,30.28,NNW,330,11.0,18.0,79,0.00,,,0.00,148,weatherlink.com 1.10,2013-02-26 21:39:00,
2013-02-26 14:54:00,33.6,28.0,30.29,NNW,328,14.0,20.0,80,0.00,,,0.00,125,weatherlink.com 1.10,2013-02-26 21:54:00,
2013-02-26 15:25:00,33.4,28.0,30.30,NW,313,15.0,20.0,79,0.00,,,0.00,127,weatherlink.com 1.10,2013-02-26 22:25:00,
2013-02-26 15:39:00,33.3,27.0,30.30,NNW,330,13.0,18.0,78,0.00,,,0.00,139,weatherlink.com 1.10,2013-02-26 22:39:00,
2013-02-26 15:54:00,33.0,27.0,30.31,NW,313,11.0,21.0,77,0.00,,,0.00,86,weatherlink.com 1.10,2013-02-26 22:54:00,
2013-02-26 16:10:00,32.8,27.0,30.32,NW,323,12.0,21.0,78,0.00,,,0.00,70,weatherlink.com 1.10,2013-02-26 23:10:00,
2013-02-26 16:25:00,32.6,27.0,30.32,NW,323,17.0,22.0,79,0.00,,,0.00,86,weatherlink.com 1.10,2013-02-26 23:25:00,
2013-02-26 16:40:00,32.3,27.0,30.33,NNW,328,13.0,20.0,81,0.00,,,0.00,56,weatherlink.com 1.10,2013-02-26 23:40:00,
2013-02-26 16:54:00,32.0,27.0,30.34,NW,317,15.0,18.0,81,0.00,,,0.00,62,weatherlink.com 1.10,2013-02-26 23:54:00,
2013-02-26 17:09:00,32.0,27.0,30.34,WNW,298,10.0,18.0,80,0.00,,,0.00,40,weatherlink.com 1.10,2013-02-27 00:09:00,
2013-02-26 17:25:00,31.8,27.0,30.34,NW,319,12.0,14.0,82,0.00,,,0.00,12,weatherlink.com 1.10,2013-02-27 00:25:00,
2013-02-26 17:39:00,31.4,27.0,30.35,NW,306,13.0,19.0,83,0.00,,,0.00,5,weatherlink.com 1.10,2013-02-27 00:39:00,
2013-02-26 17:54:00,30.7,26.0,30.35,NW,319,11.0,19.0,83,0.00,,,0.00,0,weatherlink.com 1.10,2013-02-27 00:54:00,
2013-02-26 18:10:00,30.5,26.0,30.36,WNW,303,11.0,21.0,83,0.00,,,0.00,0,weatherlink.com 1.10,2013-02-27 01:10:00,
2013-02-26 18:25:00,30.6,25.0,30.36,NW,323,13.0,18.0,81,0.00,,,0.00,0,weatherlink.com 1.10,2013-02-27 01:25:00,
2013-02-26 18:40:00,30.4,26.0,30.37,NW,320,10.0,18.0,83,0.00,,,0.00,0,weatherlink.com 1.10,2013-02-27 01:40:00,
2013-02-26 18:55:00,29.7,25.0,30.38,NNW,329,14.0,17.0,82,0.00,,,0.00,0,weatherlink.com 1.10,2013-02-27 01:55:00,
2013-02-26 19:10:00,29.1,25.0,30.39,NW,323,8.0,15.0,84,0.00,,,0.00,0,weatherlink.com 1.10,2013-02-27 02:10:00,
2013-02-26 19:25:00,29.1,25.0,30.39,NW,323,12.0,15.0,83,0.00,,,0.00,0,weatherlink.com 1.10,2013-02-27 02:25:00,
2013-02-26 19:40:00,29.4,25.0,30.40,NW,312,7.0,18.0,83,0.00,,,0.00,0,weatherlink.com 1.10,2013-02-27 02:40:00,
2013-02-26 19:55:00,29.4,25.0,30.41,NW,319,12.0,17.0,83,0.00,,,0.00,0,weatherlink.com 1.10,2013-02-27 02:55:00,
2013-02-26 20:10:00,29.4,25.0,30.41,NW,325,11.0,16.0,84,0.00,,,0.00,0,weatherlink.com 1.10,2013-02-27 03:10:00,
2013-02-26 20:25:00,29.3,25.0,30.41,NW,321,9.0,15.0,84,0.00,,,0.00,0,weatherlink.com 1.10,2013-02-27 03:25:00,
2013-02-26 20:41:00,29.2,25.0,30.42,NW,304,10.0,16.0,83,0.00,,,0.00,0,weatherlink.com 1.10,2013-02-27 03:41:00,
2013-02-26 20:55:00,29.1,25.0,30.42,NNW,333,15.0,17.0,84,0.00,,,0.00,0,weatherlink.com 1.10,2013-02-27 03:55:00,
2013-02-26 21:11:00,28.9,25.0,30.43,NNW,333,11.0,14.0,84,0.00,,,0.00,0,weatherlink.com 1.10,2013-02-27 04:11:00,
2013-02-26 21:25:00,28.8,25.0,30.43,NNW,336,12.0,15.0,84,0.00,,,0.00,0,weatherlink.com 1.10,2013-02-27 04:25:00,
2013-02-26 21:41:00,28.9,24.0,30.43,NW,312,9.0,17.0,83,0.00,,,0.00,0,weatherlink.com 1.10,2013-02-27 04:41:00,
2013-02-26 21:55:00,28.8,25.0,30.43,NW,323,12.0,16.0,84,0.00,,,0.00,0,weatherlink.com 1.10,2013-02-27 04:55:00,
2013-02-26 22:11:00,28.5,25.0,30.44,NNW,344,10.0,14.0,85,0.00,,,0.00,0,weatherlink.com 1.10,2013-02-27 05:11:00,
2013-02-26 22:41:00,28.5,25.0,30.44,NNW,329,10.0,12.0,85,0.00,,,0.00,0,weatherlink.com 1.10,2013-02-27 05:41:00,
2013-02-26 22:56:00,28.6,25.0,30.45,NNW,327,8.0,11.0,87,0.00,,,0.00,0,weatherlink.com 1.10,2013-02-27 05:56:00,
2013-02-26 23:11:00,28.6,25.0,30.45,NW,319,9.0,12.0,87,0.00,,,0.00,0,weatherlink.com 1.10,2013-02-27 06:11:00,
2013-02-26 23:26:00,28.5,25.0,30.45,NW,325,7.0,11.0,87,0.00,,,0.00,0,weatherlink.com 1.10,2013-02-27 06:26:00,
2013-02-26 23:41:00,28.5,25.0,30.45,NW,315,7.0,12.0,87,0.00,,,0.00,0,weatherlink.com 1.10,2013-02-27 06:41:00,
2013-02-26 23:56:00,28.5,25.0,30.45,NW,313,8.0,11.0,87,0.00,,,0.00,0,weatherlink.com 1.10,2013-02-27 06:56:00,